Wind_Speed
12 14 16 19 22 26 30 33 35 38 41 43 45 47 49 52 55 58 60 62 63 65 67 71 75 81 86 90 90 87 83 79 78 76 72 67 64 62 59 57 56 56 55
13 15 17 21 24 28 31 34 37 40 43 46 48 50 52 54 57 60 63 65 66 68 70 73 78 83 87 89 87 84 80 77 76 75 73 67 59 54 52 51 52 52 51
14 17 20 23 26 29 32 35 38 41 45 48 51 53 55 57 59 62 66 68 69 70 72 75 80 84 87 87 84 81 78 75 73 73 72 68 61 53 45 43 44 46 46
17 19 22 26 29 31 34 37 40 43 46 49 53 55 57 59 61 64 67 70 71 72 74 77 81 85 86 85 81 78 76 75 72 69 67 65 61 56 47 37 36 39 40
20 23 26 29 32 34 37 40 42 45 48 50 54 57 59 61 63 65 68 71 73 74 75 78 82 84 85 82 78 75 74 73 71 67 63 59 56 54 51 42 34 32 34
25 27 29 32 35 38 40 42 44 47 49 52 54 57 60 63 64 67 69 72 74 75 77 79 82 84 83 79 76 73 72 71 69 66 62 57 53 50 48 44 37 31 28
28 30 32 35 37 40 42 44 46 48 51 53 55 58 61 63 66 68 70 73 75 76 77 79 82 83 81 77 74 71 70 69 67 63 59 55 52 50 48 44 39 33 27
31 32 34 37 40 42 45 46 48 50 52 54 56 58 61 64 66 69 71 73 76 77 78 79 81 81 79 75 72 70 68 67 65 61 57 52 50 49 48 45 42 35 27
34 35 37 39 42 44 47 49 50 52 53 55 57 58 61 63 66 69 72 74 76 77 78 79 80 80 78 74 70 68 67 66 63 59 54 51 48 47 46 45 43 39 30
37 38 40 42 44 47 49 51 52 54 55 56 57 59 61 63 66 69 72 74 76 78 78 79 80 79 76 72 69 67 65 64 62 57 52 49 47 45 45 44 42 40 34
40 42 43 44 47 49 51 53 54 56 56 57 58 59 61 62 66 69 72 74 76 77 78 78 79 78 75 72 68 65 64 62 60 56 51 47 45 44 43 43 41 40 36
43 44 45 47 49 51 53 55 56 57 58 57 58 59 61 62 65 68 71 74 76 77 78 78 78 77 74 71 67 64 63 61 59 54 49 45 43 42 42 41 40 39 36
45 47 48 49 51 52 54 56 58 58 58 58 58 59 61 62 64 68 71 73 75 76 77 77 77 76 73 70 66 63 62 60 58 54 48 44 41 40 40 40 39 37 35
48 49 50 51 53 54 55 57 58 59 59 59 59 59 61 62 64 67 70 73 74 75 76 76 76 75 72 69 65 63 61 59 57 53 48 43 40 39 39 38 38 36 33
50 51 52 53 54 55 56 58 59 59 59 59 59 59 60 63 64 67 70 72 74 75 75 75 74 74 71 68 64 61 60 58 56 53 48 43 40 38 38 38 37 36 33
52 53 54 54 55 56 57 58 58 59 59 59 59 60 61 63 65 67 69 72 73 74 74 74 73 72 70 66 63 61 60 58 56 53 48 43 39 37 37 37 36 35 33
52 54 54 55 55 56 58 58 58 58 59 59 59 60 62 63 66 67 69 71 72 73 73 72 71 71 69 66 61 59 58 57 56 53 48 42 39 36 35 35 35 34 32
52 53 54 55 56 57 58 58 58 58 59 60 60 61 63 64 66 67 69 70 71 71 71 71 70 69 68 65 60 57 56 56 54 52 48 42 38 36 33 32 33 33 31
53 55 56 57 58 58 59 59 59 59 60 61 62 62 64 66 67 68 69 69 70 69 69 70 68 67 66 64 60 57 55 54 53 51 49 43 38 35 32 31 31 31 30
56 58 58 59 59 59 60 60 61 62 63 64 64 64 65 67 67 68 68 68 68 68 68 68 67 65 64 63 60 57 54 52 51 49 48 44 39 35 32 30 30 30 29
59 60 60 60 61 61 62 62 63 64 65 66 66 66 66 67 68 68 67 67 67 66 65 66 65 64 63 61 59 56 53 51 50 48 47 44 38 34 31 30 29 29 28
63 63 62 62 62 63 63 64 64 66 67 67 67 67 67 67 67 67 66 65 65 64 63 63 63 62 61 60 57 54 52 51 49 48 46 44 39 33 31 29 28 28 27
64 64 64 63 63 64 64 64 64 66 67 67 67 67 67 66 65 64 63 63 62 62 60 61 60 59 59 57 55 53 51 50 48 47 45 44 41 34 30 29 27 26 26
62 63 63 63 62 63 63 63 63 64 64 64 65 65 64 63 63 61 61 60 59 59 58 58 57 56 56 55 53 51 49 47 47 46 45 44 42 37 32 29 27 25 24
60 61 61 61 60 60 60 61 61 61 61 61 61 61 61 60 60 59 58 57 56 55 55 54 54 53 53 52 51 48 46 45 45 44 44 43 41 38 33 28 26 24 23
57 57 57 57 57 58 58 57 57 57 58 58 58 57 56 56 55 54 53 53 53 52 51 51 51 51 51 50 49 47 45 44 43 43 43 41 40 36 33 28 24 22 21
Wind_Direction
328 334 339 343 345 346 345 345 344 343 342 340 339 337 337 337 337 337 336 335 332 330 327 326 326 327 328 328 328 327 324 322 320 319 318 316 313 308 302 297 291 286 279
321 329 336 340 343 345 345 345 344 343 343 342 341 340 338 337 336 337 337 336 334 332 330 329 329 330 331 331 330 329 327 325 324 322 321 320 318 312 307 300 295 290 284
318 325 332 336 339 341 343 343 343 343 342 342 341 340 339 337 336 336 337 337 336 334 333 332 332 333 334 334 332 330 329 328 327 326 325 324 323 319 314 306 298 293 289
315 322 327 331 335 337 339 341 342 342 341 341 340 340 339 338 337 337 337 337 337 336 335 334 335 336 336 335 334 332 331 331 331 329 328 327 327 325 324 318 306 298 293
312 318 323 327 331 334 336 338 339 340 340 339 339 339 338 338 337 337 337 337 338 337 336 336 337 338 338 337 335 333 333 333 333 332 331 331 330 329 328 329 321 305 296
310 315 319 324 327 330 333 335 336 337 338 338 337 337 337 337 338 338 338 338 338 338 338 338 339 340 340 338 337 335 335 335 335 334 334 334 334 334 332 331 330 320 304
308 313 317 321 325 327 329 331 333 334 335 336 336 336 336 337 338 338 338 338 339 339 339 339 340 341 341 340 338 337 337 337 337 336 336 337 337 338 337 335 335 330 316
306 310 314 318 321 324 326 328 330 331 332 333 334 334 334 336 337 338 338 339 340 340 340 341 342 342 342 341 340 339 339 339 338 338 338 339 340 340 340 339 337 336 328
303 307 311 314 318 321 323 325 327 328 330 331 332 332 333 335 336 338 338 339 340 341 341 342 343 344 343 342 341 341 340 340 340 339 339 340 341 342 341 340 339 337 336
300 304 308 312 315 318 320 322 324 326 327 329 330 331 332 333 336 337 338 339 340 341 342 342 344 345 344 343 342 342 342 342 341 340 340 340 341 342 342 341 340 338 337
298 302 306 310 313 315 318 320 322 323 325 326 328 329 330 332 334 337 338 339 340 341 342 343 344 346 345 344 343 343 343 343 342 341 340 340 341 342 342 342 341 339 337
296 300 304 307 310 313 315 317 319 321 323 324 326 327 328 330 333 336 338 339 340 341 342 343 345 346 346 345 345 344 345 344 344 342 341 341 342 342 343 343 342 340 338
295 298 302 305 307 310 312 315 317 319 320 322 324 325 326 329 332 335 337 338 340 341 342 343 345 347 347 346 345 345 345 346 346 344 342 342 343 343 343 344 343 341 339
295 297 300 302 305 307 309 312 314 316 318 320 322 323 325 327 330 333 336 337 339 341 342 343 345 347 348 347 346 346 346 347 347 345 344 343 343 344 344 344 344 342 340
293 295 297 300 303 305 307 309 312 314 316 318 320 322 324 326 328 331 334 336 338 340 341 343 345 347 348 347 347 346 346 348 348 347 345 344 344 344 345 345 345 344 343
290 293 295 297 300 302 305 307 310 312 314 316 318 320 321 323 326 329 332 335 337 339 340 343 345 347 349 348 347 346 347 349 350 349 347 345 345 345 345 346 346 346 344
289 291 293 295 298 300 303 306 309 311 312 314 316 318 319 321 324 327 330 333 335 337 339 342 345 347 349 348 347 347 347 349 350 350 348 346 345 345 346 346 347 345 343
287 289 291 293 296 299 302 305 307 309 311 312 314 316 317 319 322 325 328 331 333 335 338 341 344 346 349 349 348 348 348 349 350 351 350 347 346 346 346 347 348 348 345
286 288 290 293 296 299 302 304 306 308 309 311 313 314 315 317 320 322 325 328 331 333 336 339 343 346 348 349 349 349 349 350 350 351 351 349 348 347 347 348 350 350 348
286 289 291 294 296 299 301 303 305 306 307 309 310 311 313 315 317 320 323 326 328 331 334 337 342 345 348 349 349 350 350 350 351 351 352 351 350 349 349 350 352 352 351
288 289 292 294 296 298 300 301 303 304 305 307 308 309 310 313 315 318 321 323 326 328 332 336 340 344 347 349 349 349 350 351 352 353 353 353 351 349 350 352 354 354 353
289 291 293 294 296 297 299 300 302 302 303 305 306 307 309 311 313 316 318 321 323 326 330 334 338 343 347 349 349 349 350 351 352 353 354 355 354 351 352 354 355 357 356
290 292 293 294 295 296 297 299 300 301 302 303 305 307 309 311 313 315 317 319 321 323 327 332 337 342 346 348 349 349 350 351 352 353 354 356 357 356 355 356 357 358 359
290 291 292 294 295 295 296 298 299 299 301 302 304 306 307 309 311 314 316 317 318 321 325 330 335 340 345 347 349 350 350 351 352 353 355 356 358 359 358 358 358 360 1
291 292 292 293 294 295 296 297 297 298 300 302 304 305 307 308 310 312 314 315 316 318 322 328 333 339 344 347 349 349 350 351 352 354 355 357 359 360 359 358 359 1 3
292 293 293 294 294 295 296 297 297 298 300 302 304 305 307 308 310 312 314 315 314 316 320 326 332 337 342 347 349 350 350 351 353 355 356 358 359 0 0 360 360 3 5
Height
5845 5841 5838 5834 5829 5824 5818 5812 5806 5799 5793 5785 5777 5769 5760 5751 5742 5732 5721 5710 5698 5686 5673 5658 5643 5625 5606 5584 5561 5538 5517 5496 5475 5457 5442 5429 5411 5394 5381 5369 5361 5355 5350
5841 5837 5833 5829 5824 5818 5813 5806 5800 5793 5785 5778 5769 5760 5751 5742 5732 5721 5710 5698 5685 5672 5658 5643 5626 5607 5586 5564 5541 5519 5498 5479 5457 5437 5421 5409 5399 5383 5367 5354 5344 5336 5331
5837 5833 5828 5824 5818 5813 5807 5800 5793 5786 5778 5769 5761 5752 5742 5732 5722 5710 5698 5685 5672 5658 5643 5627 5609 5589 5568 5546 5523 5502 5481 5464 5445 5422 5402 5387 5376 5368 5358 5344 5331 5322 5315
5832 5828 5823 5818 5812 5807 5800 5793 5786 5778 5770 5761 5752 5743 5733 5723 5712 5699 5686 5673 5659 5644 5628 5611 5593 5573 5551 5529 5507 5487 5467 5448 5431 5413 5393 5374 5358 5347 5341 5335 5322 5311 5303
5827 5822 5817 5812 5806 5800 5793 5786 5778 5770 5762 5753 5744 5734 5724 5713 5701 5689 5675 5661 5646 5631 5614 5597 5578 5558 5536 5515 5494 5474 5454 5435 5417 5401 5385 5369 5352 5336 5324 5319 5313 5304 5294
5821 5816 5811 5805 5799 5792 5785 5778 5770 5762 5753 5745 5735 5725 5715 5703 5691 5678 5665 5650 5635 5618 5601 5583 5564 5544 5523 5502 5482 5463 5444 5426 5408 5390 5374 5360 5346 5332 5318 5308 5301 5295 5288
5814 5809 5804 5798 5791 5784 5777 5770 5762 5754 5745 5736 5727 5717 5706 5694 5681 5668 5654 5639 5623 5607 5589 5571 5552 5532 5512 5492 5472 5454 5435 5417 5400 5383 5367 5352 5338 5324 5312 5301 5293 5287 5280
5807 5802 5797 5791 5784 5777 5770 5762 5754 5746 5737 5728 5718 5708 5696 5685 5672 5659 5645 5629 5613 5596 5579 5561 5542 5522 5502 5482 5463 5445 5427 5410 5393 5376 5361 5347 5333 5319 5307 5296 5287 5280 5275
5799 5795 5789 5783 5776 5769 5762 5754 5746 5738 5729 5719 5709 5698 5687 5675 5663 5650 5635 5620 5604 5587 5569 5551 5532 5513 5493 5474 5455 5438 5420 5403 5386 5371 5356 5342 5329 5317 5304 5293 5282 5274 5269
5791 5786 5781 5775 5768 5761 5753 5745 5737 5729 5720 5710 5700 5689 5678 5666 5654 5640 5626 5611 5595 5578 5560 5542 5523 5504 5485 5466 5449 5431 5414 5397 5381 5366 5352 5339 5326 5314 5302 5291 5280 5271 5264
5782 5777 5772 5766 5759 5752 5744 5736 5728 5719 5710 5700 5690 5680 5669 5657 5645 5632 5617 5602 5586 5569 5551 5534 5516 5497 5478 5460 5443 5426 5409 5393 5377 5362 5349 5336 5323 5312 5300 5289 5279 5269 5260
5774 5768 5763 5757 5750 5743 5735 5727 5718 5709 5700 5691 5681 5671 5660 5648 5636 5623 5608 5593 5577 5561 5544 5526 5508 5490 5472 5454 5437 5421 5405 5389 5374 5359 5346 5333 5321 5310 5299 5288 5277 5268 5258
5764 5759 5753 5747 5740 5733 5725 5717 5708 5700 5691 5682 5672 5662 5651 5639 5627 5614 5600 5585 5569 5553 5536 5519 5502 5484 5466 5449 5432 5416 5401 5385 5370 5355 5343 5330 5319 5308 5297 5286 5276 5266 5257
5753 5748 5742 5736 5730 5723 5715 5707 5699 5690 5681 5672 5662 5652 5641 5630 5618 5605 5592 5577 5562 5546 5529 5512 5495 5478 5461 5444 5427 5412 5396 5381 5367 5353 5339 5327 5316 5306 5295 5285 5275 5265 5256
5742 5736 5731 5725 5718 5712 5704 5696 5688 5680 5671 5662 5653 5643 5632 5621 5609 5597 5583 5569 5554 5539 5523 5506 5489 5472 5456 5439 5424 5409 5394 5379 5364 5349 5336 5324 5313 5303 5293 5283 5274 5264 5255
5730 5724 5719 5713 5707 5700 5693 5686 5678 5670 5661 5652 5643 5633 5622 5611 5600 5588 5575 5561 5547 5532 5517 5500 5484 5467 5451 5435 5419 5404 5389 5374 5360 5347 5334 5322 5311 5301 5291 5281 5272 5263 5254
5717 5712 5706 5701 5695 5689 5682 5675 5668 5659 5651 5642 5633 5623 5612 5601 5590 5579 5567 5554 5540 5525 5510 5495 5478 5462 5446 5431 5416 5401 5386 5371 5358 5345 5332 5320 5309 5300 5290 5281 5271 5262 5253
5704 5699 5694 5689 5683 5677 5670 5664 5657 5648 5640 5631 5622 5612 5602 5591 5581 5570 5558 5546 5533 5519 5505 5490 5474 5458 5443 5428 5413 5399 5384 5369 5356 5343 5331 5319 5308 5298 5289 5280 5271 5262 5253
5691 5686 5681 5676 5671 5665 5658 5652 5645 5636 5628 5619 5611 5601 5591 5581 5571 5561 5550 5538 5526 5513 5499 5485 5469 5454 5439 5425 5410 5396 5382 5368 5354 5341 5329 5318 5307 5297 5288 5279 5270 5261 5253
5677 5673 5668 5663 5658 5652 5645 5639 5632 5624 5615 5607 5599 5590 5580 5571 5561 5551 5541 5530 5518 5506 5493 5479 5465 5450 5436 5421 5408 5394 5381 5368 5355 5341 5329 5316 5305 5295 5287 5278 5270 5262 5253
5664 5659 5655 5650 5645 5638 5632 5625 5619 5611 5602 5595 5587 5578 5569 5560 5551 5542 5533 5522 5511 5499 5487 5474 5461 5447 5432 5418 5405 5391 5379 5366 5353 5341 5329 5316 5305 5295 5286 5277 5269 5261 5253
5649 5645 5640 5636 5631 5624 5617 5611 5605 5596 5588 5581 5574 5566 5558 5549 5541 5532 5523 5514 5503 5492 5480 5468 5455 5441 5428 5415 5402 5389 5376 5364 5352 5340 5328 5317 5305 5295 5286 5277 5269 5262 5254
5634 5629 5624 5620 5615 5608 5602 5596 5590 5582 5574 5567 5560 5553 5546 5538 5530 5522 5514 5505 5495 5485 5474 5462 5450 5437 5424 5412 5399 5386 5374 5362 5350 5339 5327 5316 5305 5295 5286 5278 5270 5263 5256
5618 5613 5608 5604 5599 5593 5587 5581 5574 5567 5560 5553 5547 5540 5533 5526 5519 5512 5504 5496 5487 5478 5468 5457 5445 5433 5421 5409 5396 5384 5372 5361 5349 5338 5327 5316 5305 5294 5286 5278 5271 5264 5258
5603 5598 5592 5588 5583 5577 5572 5566 5559 5553 5546 5540 5534 5528 5521 5515 5508 5502 5495 5487 5479 5471 5461 5451 5440 5428 5417 5406 5394 5383 5372 5361 5350 5339 5327 5316 5305 5296 5287 5280 5273 5266 5260
5587 5582 5577 5572 5568 5562 5557 5551 5545 5539 5533 5527 5521 5515 5509 5504 5498 5491 5485 5478 5471 5463 5455 5445 5435 5424 5413 5403 5392 5381 5370 5360 5349 5339 5328 5317 5307 5298 5289 5282 5275 5269 5263